Weeping Water, NE (68463)

5:10 PM CDT on March 29, 2017 (GMT -0500)
Gore | | Change Station

Elev 1123 ft 40.84 °N, 96.02 °W | Updated 8 seconds ago

Rain
Rain
41.5 °F
Feels Like 34 °F
N
13.4
Wind Variable Wind from NNE
Gusts 15.0 mph

Today
High -- | Low -- °F
--% Chance of Precip.
Yesterday
High -- | Low -- °F
Precip. -- in
Pressure 29.82 in
Visibility 3.0 miles
Clouds Overcast 700 ft
Windchill 34 °F
Dew Point 41 °F
Humidity 99%
Rainfall 1.84 in
Snow Depth Not available.
7:12 AM 7:46 PM
Waxing Crescent, 5% visible
METAR KPMV 292155Z AUTO 02016G23KT 3SM -DZ OVC007 06/04 A2982 RMK AO2 T00570042
Pressure 29.82 in
Visibility 3.0 miles
Clouds Overcast 700 ft
Windchill 34 °F
Dew Point 41 °F
Humidity 99%
Rainfall 1.84 in
Snow Depth Not available.
7:12 AM 7:46 PM
Waxing Crescent, 5% visible
METAR KPMV 292155Z AUTO 02016G23KT 3SM -DZ OVC007 06/04 A2982 RMK AO2 T00570042

Get Severe Weather Alerts

Thanks for signing up!

Be on the lookout for a verification email in your inbox.

You'll start receiving the daily forecast at 8 AM.

×

10-Day Weather Forecast

Almanac

Astronomy

Mar. 29, 2017 Rise Set
Actual Time
Civil Twilight
Nautical Twilight
Astronomical Twilight
Moon
Length of Visible Light
Length of Day
Tomorrow will be .
, % of the Moon is Illuminated

Today's Extremes

State Highs State Lows

Community

WunderPhotos

Upload Photos

1,962,540 photos uploaded!

WunderBlog® & News

Nearby

Air Quality

  Air Quality AQ Index Pollutant
Not available.

Snow Depth

Station Depth Elevation

Earthquake Activity

City Distance Mag. Time & Date
Minimum magnitude displayed is 2.5.

Earthquake Activity

City Distance Mag. Time & Date
Minimum magnitude displayed is 2.5.

Coastal Water Temperatures

Place Temperature

Stations

Nearby Weather Stations

Station Location Temp. Windchill Dew Point Humidity Wind Precip. Elev Updated Type
                   

Watches & Warnings

There are currently no watches in effect.